SCP
2 2 3 3 3 3 2 2 1 1 1 1 1 1 1 1 0 0 1 1 1 0 0 0 0 0 0 0 0 0 0 0 0 0 0 0 0 0 0 0 0 0 0
2 2 2 3 3 3 2 2 1 1 1 1 1 1 1 1 1 1 1 1 1 0 0 0 0 1 1 1 0 0 0 0 0 0 0 0 0 0 0 0 0 0 0
1 1 2 2 2 2 2 2 2 1 1 1 1 1 1 1 1 1 1 1 1 1 0 0 1 1 1 1 1 1 0 0 0 0 0 0 0 0 0 0 0 0 0
1 1 1 1 1 1 1 1 1 1 1 1 1 1 1 1 1 1 1 1 1 1 1 1 1 1 1 1 1 1 1 1 1 1 0 0 0 0 0 0 0 0 0
2 2 1 1 1 1 1 1 1 1 1 1 1 1 2 1 1 1 1 1 1 1 1 1 1 1 1 1 1 1 1 1 1 1 1 1 1 0 0 0 0 0 0
1 1 1 1 1 1 1 1 1 1 1 1 1 2 2 1 1 1 1 1 1 1 1 1 2 1 1 1 1 1 1 1 1 1 1 1 1 1 0 0 0 0 0
1 1 1 1 1 1 1 1 1 1 1 1 1 1 1 1 0 0 0 1 1 1 1 2 2 2 1 1 1 1 1 1 1 1 1 1 1 1 1 0 0 0 0
1 1 1 1 1 1 1 1 1 1 1 1 1 1 1 0 0 0 0 0 1 1 1 2 2 2 1 1 2 1 1 1 0 1 1 0 0 0 1 1 1 0 0
1 1 1 1 1 1 1 1 1 1 1 1 1 0 0 0 0 0 0 0 1 1 1 2 2 1 1 1 2 2 1 1 0 0 0 0 0 0 0 1 1 1 0
0 1 1 1 1 1 1 1 1 1 1 1 1 1 0 0 0 0 0 0 1 1 1 1 1 1 1 1 1 1 1 1 0 0 0 0 0 0 0 1 1 1 1
0 0 0 1 1 1 1 1 1 1 1 1 1 0 0 0 0 0 0 0 0 1 1 1 1 1 0 0 1 1 1 1 1 1 1 1 0 0 0 1 1 1 1
0 0 0 0 1 1 1 1 1 1 1 1 1 1 0 0 0 0 0 0 0 0 1 1 1 1 0 0 0 0 0 0 1 1 1 1 1 1 1 1 1 1 1
0 0 0 0 0 1 1 1 1 1 0 0 1 1 1 0 0 0 0 0 0 0 0 0 0 0 0 0 0 0 0 0 1 1 1 1 1 1 1 1 1 1 1
0 0 0 0 0 0 0 0 0 0 0 0 0 0 0 0 0 0 0 0 0 0 0 0 0 0 0 0 0 0 0 0 1 1 1 1 1 1 1 1 1 1 1
0 0 0 0 0 0 0 0 0 0 0 0 0 0 0 0 0 0 0 0 0 0 0 0 0 0 0 0 0 0 0 0 1 1 1 1 1 1 1 1 1 1 1
0 0 0 0 0 0 0 0 0 0 0 0 0 0 0 0 0 0 0 0 0 0 0 0 0 0 0 0 0 0 0 0 0 1 1 1 1 1 1 1 1 1 1
0 0 0 0 0 0 0 0 0 0 0 0 0 0 0 0 0 0 0 0 0 0 0 0 0 0 0 0 0 0 0 1 1 0 0 0 0 0 0 0 1 1 1
0 0 0 0 0 0 0 0 0 0 0 0 0 0 0 0 0 0 0 0 0 0 0 0 0 0 0 0 0 0 1 1 1 0 0 0 0 0 0 0 0 0 0
0 0 0 0 0 0 0 0 0 0 0 0 0 0 0 0 0 0 0 0 0 0 0 0 0 0 0 0 0 0 0 1 1 1 0 0 0 0 0 0 0 0 0
0 0 0 0 0 0 0 0 0 0 0 0 0 0 0 0 0 0 0 0 0 0 0 0 0 0 0 0 0 0 0 0 1 0 0 0 0 0 0 0 0 0 0
0 0 0 0 0 0 0 0 0 0 0 0 0 0 0 0 0 0 0 0 0 0 0 0 0 0 0 0 0 0 0 0 0 0 0 0 0 0 0 0 0 0 0
0 0 0 0 0 0 0 0 0 0 0 0 0 0 0 0 0 0 0 0 0 0 0 0 0 0 0 0 0 0 0 0 0 0 0 0 0 0 0 0 0 0 0
0 0 0 0 0 0 0 0 0 0 0 0 0 0 0 0 0 0 0 0 0 0 0 0 0 0 0 0 0 0 0 0 0 0 0 0 0 0 0 0 0 0 0
0 0 0 0 0 0 0 0 0 0 0 0 0 0 0 0 0 0 0 0 0 0 0 0 0 0 0 0 0 0 0 0 0 0 0 0 0 0 0 0 0 0 0
0 0 0 0 0 0 0 0 0 0 0 0 0 0 0 0 0 0 0 0 0 0 0 0 0 0 0 0 0 0 0 0 0 0 0 0 0 0 0 0 0 0 0
0 0 0 0 0 0 0 0 0 0 0 0 0 0 0 0 0 0 0 0 0 0 0 0 0 0 0 0 0 0 0 0 0 0 0 0 0 0 0 0 0 0 0
Wind_Speed
8 8 8 8 7 7 7 7 6 6 6 6 6 6 6 6 6 6 6 5 6 5 5 5 5 4 3 3 3 3 3 3 3 2 1 1 1 1 1 1 1 1 1
7 8 8 7 7 7 7 7 7 7 6 7 6 6 6 6 6 6 6 6 6 6 6 5 5 4 4 3 3 4 3 3 4 4 2 1 2 1 1 1 1 1 0
6 7 8 8 8 7 7 7 7 7 7 6 6 6 6 7 7 6 6 7 7 6 6 5 5 5 5 3 4 4 3 3 3 4 2 1 1 1 2 2 1 1 1
6 7 7 8 7 7 7 7 7 7 7 6 6 6 6 7 7 7 7 7 6 6 6 5 4 4 4 4 3 4 3 4 4 4 3 2 2 1 2 2 2 1 2
6 7 7 7 7 7 7 7 6 6 6 6 6 6 6 6 5 6 7 7 6 6 6 5 4 3 2 2 2 3 3 3 3 3 3 3 2 2 2 2 3 2 2
5 6 5 6 6 6 6 6 6 6 6 6 6 6 5 4 3 4 6 6 6 6 6 5 4 4 4 3 2 3 3 4 4 4 3 4 3 3 2 3 3 3 2
4 5 5 6 6 6 6 6 6 7 7 7 7 6 6 5 6 6 7 6 6 6 5 5 4 3 4 4 5 5 4 3 4 5 5 4 4 3 3 4 4 4 3
3 4 4 5 6 5 6 6 6 6 6 6 6 7 6 5 7 7 7 8 6 6 5 5 5 4 3 4 4 4 4 4 4 5 5 4 3 3 4 4 5 4 3
3 3 4 4 5 6 6 6 6 6 6 6 6 6 6 6 7 8 7 6 5 6 5 5 5 5 3 4 5 5 4 3 2 2 3 3 2 2 3 3 3 4 3
3 3 3 4 5 6 6 6 5 5 6 5 5 6 6 6 7 8 8 5 5 5 5 5 5 5 4 6 6 5 5 4 3 4 4 4 4 3 4 5 4 4 3
2 3 3 4 4 4 4 4 5 4 5 5 5 5 5 5 7 9 8 5 5 5 4 4 4 6 5 6 6 5 5 4 4 4 3 3 3 3 3 4 4 4 4
1 2 3 3 3 3 3 3 4 4 5 5 4 4 4 4 5 7 9 7 5 5 4 3 3 6 7 7 6 4 4 4 3 3 3 3 3 3 3 3 4 4 4
2 2 2 3 3 3 3 3 3 4 3 3 3 4 3 2 3 5 7 8 7 5 3 2 3 5 6 6 6 6 6 4 4 4 4 3 3 3 3 2 3 3 4
2 2 2 2 2 2 2 3 3 3 3 3 3 3 3 3 3 3 3 4 6 5 3 4 5 5 3 3 4 5 4 3 3 4 3 3 2 3 3 2 3 3 3
2 1 1 1 1 2 2 2 3 2 2 3 3 3 3 3 2 1 2 2 2 2 3 3 3 3 3 3 3 3 3 3 4 4 3 3 3 3 3 2 3 3 4
2 1 1 1 1 2 2 1 1 0 1 1 1 2 2 1 2 4 3 2 3 4 3 3 3 3 3 3 3 3 3 3 3 3 4 4 4 3 3 3 3 4 4
2 2 1 1 2 2 2 2 2 2 2 2 2 1 1 2 3 4 5 4 4 5 3 2 3 3 3 3 3 3 3 3 3 3 4 4 4 4 4 4 4 4 4
2 2 1 1 2 2 2 2 2 2 2 2 2 3 3 3 3 4 5 4 3 3 3 2 2 2 2 2 2 2 2 2 3 3 4 4 4 4 4 4 4 5 5
2 1 1 1 1 1 1 1 2 2 1 1 1 2 3 3 3 3 5 3 2 2 2 2 2 2 2 2 2 2 2 2 2 3 3 3 3 4 4 4 4 5 5
1 2 1 1 1 1 1 1 1 1 1 1 1 1 2 2 2 3 3 2 2 2 2 2 2 2 2 2 2 2 2 2 3 3 3 3 3 4 4 4 4 4 4
1 2 2 1 1 1 1 1 1 1 2 2 1 1 1 1 1 2 2 1 1 2 2 2 2 2 2 2 2 3 3 3 3 3 3 3 3 4 4 4 4 4 4
1 1 1 1 1 1 1 1 1 1 2 2 1 2 3 2 1 1 1 1 1 1 2 2 1 1 2 2 3 3 3 3 3 3 3 3 3 4 4 4 4 4 4
1 1 1 1 1 2 1 1 1 1 1 1 1 2 2 1 1 1 1 1 1 1 1 1 1 1 2 2 2 3 3 3 4 4 4 4 4 4 4 4 4 4 4
1 1 1 1 1 2 1 1 1 1 1 2 2 2 2 2 1 2 1 1 2 2 2 2 2 2 3 2 2 2 3 3 4 4 5 4 4 4 4 4 5 5 5
1 1 1 1 1 1 1 1 1 1 1 1 2 2 2 2 2 2 2 2 2 2 3 3 3 3 4 4 4 3 2 3 4 4 4 4 5 5 5 5 5 5 5
1 1 1 1 1 1 1 1 1 1 1 1 2 2 2 2 2 2 2 2 2 3 3 3 4 4 5 4 4 4 3 4 4 5 5 4 5 5 5 5 6 5 5
Wind_Direction
203 204 203 204 203 205 207 208 205 204 204 211 216 215 214 215 215 211 219 217 225 226 225 234 235 241 238 234 235 241 246 255 263 262 236 225 254 268 257 285 288 274 99
202 204 205 204 201 205 209 209 206 206 208 211 214 218 217 218 219 218 218 221 226 229 228 232 235 228 238 242 238 237 238 243 251 254 233 234 260 271 274 274 296 303 315
201 203 201 202 204 207 210 211 209 209 210 210 211 217 219 219 218 221 222 224 227 228 227 226 231 231 232 233 236 239 240 238 243 247 244 238 245 259 267 269 269 284 278
200 203 205 205 206 207 208 209 210 209 209 210 212 217 219 220 220 219 221 225 225 224 225 225 225 228 236 235 234 239 238 233 235 239 232 229 233 240 253 258 258 261 257
201 206 209 207 204 208 209 208 207 208 212 210 212 215 216 218 222 223 218 219 221 220 219 218 216 230 269 265 256 244 236 232 230 233 235 233 229 226 246 259 266 266 239
205 207 205 208 204 206 209 209 207 208 211 211 213 213 213 215 194 214 231 221 222 220 216 216 206 205 205 213 243 264 264 248 239 231 235 239 241 237 245 251 258 256 256
214 210 203 202 203 207 208 208 208 208 207 208 211 211 215 206 185 196 219 227 224 221 216 216 214 206 209 215 205 213 226 249 266 258 245 247 248 237 237 244 253 261 274
217 216 209 206 201 203 206 208 209 208 206 210 209 209 212 203 186 194 208 220 220 215 215 221 222 215 212 231 215 215 223 222 238 253 259 263 267 259 243 248 256 256 249
223 225 218 210 202 201 206 211 211 210 210 214 211 211 212 205 188 194 199 209 215 214 213 219 227 224 188 224 228 222 224 215 191 253 310 318 336 312 275 243 240 241 244
235 232 227 219 209 208 212 213 211 213 216 217 216 216 215 214 183 188 200 209 213 215 214 214 214 230 191 199 224 227 232 231 217 205 217 222 227 213 242 243 242 247 258
249 236 224 220 218 214 211 210 210 212 217 218 218 218 216 214 188 186 199 219 218 220 218 216 207 195 198 204 227 235 242 250 230 230 232 229 228 223 225 240 247 252 257
248 241 227 219 214 206 202 203 205 204 210 214 216 218 218 205 198 192 201 218 233 226 225 221 202 187 197 205 219 227 231 238 232 230 234 234 234 232 234 239 246 249 262
223 231 234 219 204 203 206 201 204 204 211 212 213 216 214 207 189 188 198 207 217 228 227 204 195 188 192 202 211 216 221 224 226 232 234 234 239 247 240 234 244 251 255
213 211 226 224 203 198 205 206 206 205 210 217 219 219 215 204 196 188 199 200 201 207 203 179 176 179 199 203 199 210 223 225 231 236 240 238 237 236 236 236 239 240 240
209 195 214 222 197 204 208 214 222 216 217 229 231 226 219 217 197 185 203 210 209 201 187 188 194 194 202 211 217 219 219 217 224 233 236 235 231 234 240 245 250 248 245
206 197 201 211 210 200 199 186 110 191 105 207 271 253 232 203 151 160 165 154 154 160 181 196 201 207 211 215 216 220 225 226 228 233 238 236 236 236 238 241 243 245 249
213 204 202 219 213 202 207 205 184 144 150 164 160 166 183 143 152 155 151 150 158 169 195 208 214 218 218 219 222 225 230 235 240 239 242 242 239 238 239 238 239 244 250
213 192 204 213 217 205 210 216 210 196 184 166 147 136 139 142 141 146 150 151 168 188 215 218 221 223 228 229 229 233 235 234 234 241 246 245 241 242 241 241 242 246 250
211 190 182 187 197 185 184 198 200 194 182 146 128 125 128 145 149 148 158 181 191 203 219 224 226 230 234 237 237 242 243 243 245 246 251 255 253 249 250 252 249 248 250
192 125 152 163 155 153 164 174 170 156 139 126 126 113 135 153 159 161 179 208 217 219 223 228 227 231 235 238 239 239 242 244 248 250 253 253 255 256 255 260 263 256 250
181 146 150 156 143 144 156 156 158 153 148 142 130 100 134 174 168 169 179 198 228 243 247 245 242 239 243 246 243 240 243 250 249 250 252 252 254 256 259 260 264 268 269
190 171 164 151 140 137 145 157 157 159 159 156 139 128 150 175 167 178 185 199 242 267 267 261 259 259 256 253 252 250 248 251 254 255 257 258 257 257 258 257 259 263 267
188 162 148 142 138 130 146 148 148 154 157 148 147 145 157 176 180 190 206 214 224 244 265 268 264 272 272 264 257 253 254 256 258 258 256 253 252 250 252 255 257 262 265
169 159 156 153 157 166 161 154 160 170 175 174 176 176 177 192 200 206 220 226 232 237 245 258 261 265 275 280 272 266 271 280 276 261 255 255 253 252 250 252 255 255 257
166 158 164 173 176 179 176 177 185 194 200 198 198 199 200 209 217 221 229 235 247 250 253 259 262 264 266 267 268 269 281 285 282 279 259 251 250 250 253 254 253 255 254
159 160 172 179 183 191 197 203 204 207 213 214 220 219 216 222 233 239 239 240 251 258 263 264 266 270 272 267 270 280 269 259 263 271 264 251 250 251 253 256 256 255 255